Regional Weather Roundup
Issued by NWS San Angelo, TX

Home | Current Version | Previous Version | Text Only | Print | Product List | Glossary On
Versions: 1 2 3 4 5 6 7 8 9 10 11 12 13 14 15 16 17 18 19 20 21 22 23 24 25 26 27 28 29 30 31 32 33 34 35 36 37 38 39 40 41 42 43 44 45 46 47 48 49 50
000
ASUS44 KSJT 121510
RWRSJT
WEST CENTRAL TEXAS REGIONAL WEATHER ROUNDUP
NATIONAL WEATHER SERVICE SAN ANGELO TX
900 AM CST TUE DEC 12 2017

NOTE: "FAIR" INDICATES FEW OR NO CLOUDS BELOW 12,000 FEET WITH NO
SIGNIFICANT WEATHER AND/OR OBSTRUCTIONS TO VISIBILITY.

TXZ049-054-064>066-071>073-076>078-098-099-113-114-127-128-139-140-
154-155-168>170-121600
...LOCATIONS ACROSS WEST CENTRAL TEXAS...

CITY           SKY/WX    TMP DP  RH WIND       PRES   REMARKS
SAN ANGELO     SUNNY     47  22  37 N10       30.47R
ABILENE        SUNNY     39  23  52 NW7       30.48R WCI  34
DYESS AFB      SUNNY     41  22  47 N8        30.48R WCI  36
JUNCTION       SUNNY     40  30  67 CALM      30.45R
SWEETWATER     SUNNY     41  19  40 N9        30.50S WCI  35
BROWNWOOD      SUNNY     45  25  45 N12       30.46R WCI  39
COLEMAN        SUNNY     44  24  45 N12       30.46S WCI  38
SONORA         SUNNY     41  23  48 N9        30.50R WCI  35
OZONA          FAIR      43  23  45 N10       30.49R WCI  37
BRADY          NOT AVBL
$$

TEXAS PANHANDLE/OKLAHOMA PANHANDLE

CITY           SKY/WX    TMP DP  RH WIND       PRES   REMARKS
AMARILLO       CLOUDY    34  14  43 W8        30.45S WCI  27
BORGER         CLOUDY    30  14  51 W6        30.45F WCI  24
CANADIAN       CLOUDY    26  19  72 CALM      30.44S
DALHART        CLOUDY    31  12  45 W8        30.44F WCI  23
DUMAS          CLOUDY    30  13  48 W10       30.43F WCI  21
GUYMON         NOT AVBL
HEREFORD       CLOUDY    30  16  55 MISG      30.47S
PAMPA          CLOUDY    31  17  55 W7        30.44S WCI  24
PERRYTON       CLOUDY    32  18  55 W7        30.41S WCI  25
$$

SOUTHERN PANHANDLE/SOUTH PLAINS/ROLLING PLAINS

CITY           SKY/WX    TMP DP  RH WIND       PRES   REMARKS
LUBBOCK        CLOUDY    31  12  45 NW7       30.48R WCI  24
SNYDER         SUNNY     38  18  43 CALM      30.50R
CHILDRESS      CLOUDY    36  18  48 NW8       30.47S WCI  30
SEMINOLE       CLOUDY    35  16  45 N6        30.51S WCI  30
$$

PERMIAN BASIN

CITY           SKY/WX    TMP DP  RH WIND       PRES   REMARKS
MIDLAND        CLOUDY    38  21  50 N6        30.49R WCI  33
ODESSA         CLOUDY    37  20  50 N8        30.50R WCI  31
WINK           CLOUDY    37  20  50 N6        30.52R WCI  32
$$

FAR WEST/SOUTHWEST MOUNTAINS/TRANS PECOS

CITY           SKY/WX    TMP DP  RH WIND       PRES   REMARKS
ALPINE         CLOUDY    38  28  65 NE5       30.55S WCI  35
DRYDEN           N/A     51  22  31 N12       30.48R
EL PASO        MOSUNNY   38  17  42 N6        30.47R WCI  33
FORT STOCKTON  SUNNY     38  26  62 W6        30.52R WCI  33
GUADALUPE PASS CLOUDY    40  11  30 NE33G39   30.47R WCI  28
MARFA          CLOUDY    40  22  48 N7        30.50R WCI  35
PECOS          CLOUDY    37  25  63 NW6       30.54R WCI  32
$$

DALLAS/FORT WORTH METROPLEX

CITY           SKY/WX    TMP DP  RH WIND       PRES   REMARKS
DFW AIRPORT    SUNNY     47  30  51 N18       30.41R WCI  40
FTW MEACHAM    SUNNY     46  30  53 N18G26    30.43R WCI  39
DAL-EXECUTIVE  SUNNY     47  30  51 N14G25    30.40R
GRAND PRAIRIE  SUNNY     46  28  49 N15       30.43R
ADDISON        SUNNY    N/A N/A N/A N14G28    30.42R
MESQUITE       SUNNY     46  28  49 N22G28    30.40S WCI  38
LANCASTER      SUNNY     46  29  51 N17G26    30.41R WCI  38
$$

NORTH CENTRAL TEXAS

CITY           SKY/WX    TMP DP  RH WIND       PRES   REMARKS
SHRMAN/DENISON SUNNY     42  29  60 N13       30.43R WCI  35
GAINESVILLE    SUNNY     42  29  58 N10       30.45R WCI  36
BRIDGEPORT     SUNNY     44  29  57 N8        30.46R WCI  39
DENTON         SUNNY     43  30  60 N9        30.43R WCI  38
WAXAHACHIE     SUNNY     46  31  57 N18G26    30.41R WCI  38
GRANBURY       SUNNY     46  30  53 NW9       30.46R
$$

WESTERN NORTH TEXAS

CITY           SKY/WX    TMP DP  RH WIND       PRES   REMARKS
WICHITA FALLS  SUNNY     41  28  60 N14       30.45R WCI  33
VERNON         SUNNY     40  22  49 NW9       30.47S WCI  34
BRECKENRIDGE   SUNNY     43  26  51 N8        30.47R WCI  38
COMANCHE       SUNNY     43  28  56 NW9       30.45R WCI  38
$$

CENTRAL AND SOUTH CENTRAL TEXAS

CITY           SKY/WX    TMP DP  RH WIND       PRES   REMARKS
AUSTIN/BERGSTM MOSUNNY   53  28  38 N14       30.40R
WACO           SUNNY     48  27  44 NW10      30.42R
HILLSBORO      SUNNY     47  30  52 N14G20    30.40R
TEMPLE         SUNNY     48  28  46 N16       30.41R
KILLEEN-GRAY   SUNNY     46  26  46 NW13      30.40R
FORT HOOD      SUNNY     47  27  45 N15G22    30.38R
GEORGETOWN     SUNNY     50  27  40 N16       30.42R
LAGO VISTA     FAIR      49  27  42 MISG      30.41R
SAN MARCOS     SUNNY     52  31  44 N15       30.40R
NEW BRAUNFELS  SUNNY     54  27  35 N14       30.38R
RANDOLPH AFB   SUNNY     54  25  33 N20G25    30.38R
SAN ANTONIO    MOSUNNY   53  26  35 N13G22    30.39R
STINSON        SUNNY     56  27  32 N12G18    30.37R
PLEASANTON     NOT AVBL
LA GRANGE        N/A    N/A N/A N/A MISG        N/A
GIDDINGS       SUNNY     49  28  43 N8G16     30.38R
$$

EAST TEXAS

CITY           SKY/WX    TMP DP  RH WIND       PRES   REMARKS
PARIS          SUNNY     43  28  55 N13       30.36R WCI  36
CLARKSVILLE    NOT AVBL
TYLER          SUNNY     46  29  51 N13       30.36R
LONGVIEW       SUNNY     48  32  53 N12G21    30.33R
PALESTINE      SUNNY     47  32  55 NW12G22   30.37R
NACOGDOCHES    SUNNY     48  33  56 N14G20    30.33R
$$

TEXAS HILL COUNTRY AND EDWARDS PLATEAU

CITY           SKY/WX    TMP DP  RH WIND       PRES   REMARKS
LLANO          SUNNY     48  30  49 N8        30.47R
HORSESHOE BAY  FAIR      49  29  44 NW6       30.43R
KERRVILLE      SUNNY     49  25  40 N15G21    30.41R
FREDERICKSBRG  SUNNY     48  24  40 N12       30.42R
ROCKSPRINGS    NOT AVBL
HONDO          SUNNY     54  33  45 N9        30.39R
UVALDE         SUNNY     47  37  68 CALM      30.42R
DEL RIO        SUNNY     47  42  83 W9        30.46R
$$

SOUTHEAST TEXAS

CITY           SKY/WX    TMP DP  RH WIND       PRES   REMARKS
COLLEGE STN    SUNNY     52  31  44 N16       30.37R
CALDWELL       SUNNY     50  28  42 N12G20    30.38R
CROCKETT         N/A     46  30  53 NW3       30.38R
BRENHAM        SUNNY     52  32  46 N15       30.37R
HUNTSVILLE     SUNNY     50  30  46 N10       30.34R
CONROE         SUNNY     52  30  43 N12G20    30.33R
HOUSTON BUSH   MOSUNNY   54  31  41 N15       30.32R
HOUSTON HOBBY  SUNNY     55  31  39 N16       30.31R
PERLAND        SUNNY     56  31  38 N13G21    30.32R
WHARTON        SUNNY     53  31  44 N12       30.34R
$$

THE UPPER TEXAS COAST

CITY           SKY/WX    TMP DP  RH WIND       PRES   REMARKS
ORANGE         SUNNY     53  36  52 N9        30.29R
PORT ARTHUR    SUNNY     54  33  45 N17G23    30.28R
GALVESTON      SUNNY     58  39  49 N20       30.30R
ANGLETON       SUNNY     57  34  41 N18       30.30R
BAY CITY       SUNNY     55  37  50 N10       30.31R
$$

TEXAS COASTAL BEND, RIO GRANDE PLAINS DEEP SOUTH TEXAS

CITY           SKY/WX    TMP DP  RH WIND       PRES   REMARKS
VICTORIA       MOSUNNY   53  34  48 N12       30.35R
BEEVILLE       FAIR      54  33  44 N14G21    30.35R
ROCKPORT       CLOUDY    53  38  56 N13       30.32R
PORT ARANSAS   NOT AVBL
PORT LAVACA    SUNNY     51  39  62 N14       30.34R
CORPUS CHRISTI PTSUNNY   56  40  55 N14       30.33R
KINGSVILLE NAS PTSUNNY   58  45  62 N13       30.33R
COTULLA        SUNNY     55  36  48 N7        30.40R
LAREDO         SUNNY    N/A N/A N/A NW7       30.39R
BROWNSVILLE    CLOUDY    62  46  55 NW6       30.33R
PORT ISABEL    MOSUNNY   58  47  66 NW6       30.32R
HEBBRONVILLE   MOSUNNY   59  37  43 NE14G23   30.36R
MCALLEN        CLOUDY    56  47  71 W5        30.34R
WESLACO        MOSUNNY   54  45  71 NW5       30.33R
FALFURRIAS     NOT AVBL
EDINBURG       NOT AVBL
$$




USA.gov is the U.S. government's official web portal to all federal, state and local government web resources and services.